Other Surface Observations
Issued by NWS

Home | Current Version | Previous Version | Text Only | Print | Product List | Glossary On
Versions: 1 2 3 4 5 6 7 8 9 10 11 12 13 14 15 16 17 18 19 20 21 22 23 24 25 26 27 28 29 30 31 32 33 34 35 36 37 38 39 40 41 42 43 44 45 46 47 48 49 50
000
SXUS52 KTAE 251618
OSOTAE
OSOTAE
North Florida/South Alabama/Southwest Georgia Weather Roundup
National Weather Service Tallahassee Florida
1200 PM EDT FRI JUL 25 2014

Note: "fair" indicates few or no clouds below 12,000 feet with no
significant weather and/or obstructions to visibility.

!FLZ017-115-028-034-025-251700
...North Florida...

CITY           SKY/WX    TMP DP  RH WIND       PRES   REMARKS
TALLAHASSEE    PTSUNNY   90  70  51 SW8       30.05F THUNDER HX  95
APALACHICOLA   MOSUNNY   86  75  69 S12       30.06F HX  95
PERRY          PTSUNNY   86  72  62 W6        30.07F HX  92
CROSS CITY       N/A     83  76  79 S5        30.07F HX  91
HOMERVILLE     FAIR      90  73  58 W9        30.07S HX  98
JACKSONVILLE   MOSUNNY   89  73  59 W7        30.06S HX  97
$$

!FLZ112-006-005-002-011-251700
...Florida Panhandle...

CITY           SKY/WX    TMP DP  RH WIND       PRES   REMARKS
MARIANNA       SUNNY     87  74  64 SW10      30.04F HX  95
BONIFAY        CLOUDY    86  74  67 SW3       30.05S HX  94
PANAMA CITY NW PTSUNNY   87  76  69 S13       30.04S HX  97
TYNDALL AFB    MOSUNNY   86  77  74 SW14      30.06S HX  98
TYND DRONE APT FAIR      86  77  74 SW10      30.04F HX  97
DE FUNIAK SPR  PTSUNNY   85  74  68 S8        30.05S HX  93
EGLIN AFB      MOSUNNY   86  75  70 S15       30.03S HX  95
DESTIN         SUNNY     88  76  67 VRB6      30.04S HX  99
HURLBURT       MOSUNNY   86  72  61 S13       30.03S HX  92
CRESTVIEW      HVY RAIN  78  73  84 SW13G21   30.06R
PENSACOLA      PTSUNNY   86  73  66 MISG      30.03S HX  93
$$

!ALZ063-066-251700
...South Alabama...

CITY           SKY/WX    TMP DP  RH WIND       PRES   REMARKS
DOTHAN         PTSUNNY   83  72  69 W7        30.09F
OZARK CAIRNS   MOSUNNY   85  74  71 SW6       30.05F HX  92
FT RUCKER HELI PTSUNNY   88  72  58 SW8       30.04S HX  94
RUCKER HELI 3  FAIR      84  73  68 W6        30.08S HX  90
RUCKER HELI 2  PTSUNNY   85  72  65 VRB6      30.05S HX  91
FLORALA APT    PTSUNNY   87  73  62 VRB3      30.06S HX  94
ANDALUSIA      MOSUNNY   90  72  55 SW5       30.05S HX  97
TROY           MOSUNNY   86  70  58 CALM      30.06S HX  90
EUFALA         PTSUNNY   89  71  55 S5        30.04F HX  95
MOBILE         PTSUNNY   86  75  69 VRB5      30.05S HX  95
$$

!GAZ120>161-251700
...Southwest and South Central Georgia...

CITY           SKY/WX    TMP DP  RH WIND       PRES   REMARKS
THOMASVILLE    FAIR      88  72  58 W3        30.07F HX  94
BAINBRIDGE     PTSUNNY   88  77  70 W6        30.05F HX 100
MOODY AFB      MOSUNNY   88  81  78 W10       30.06F HX 106
VALDOSTA       MOSUNNY   92  71  50 S6        30.07S HX  98
MOULTRIE       MOSUNNY   86  73  66 SW6       30.07F HX  93
BLAKELY        MOSUNNY   88  72  58 W5        30.06S HX  94
ALBANY         PTSUNNY   90  72  55 SW6       30.07S HX  96
TIFTON         FAIR      85  69  57 SW7       30.06F
FITZGERALD     FAIR      88  71  56 SW9       30.08S HX  94
CORDELE        PTSUNNY   87  73  63 W7        30.07R HX  94
AMERICUS       PTSUNNY   84  72  65 W5        30.08S
$$

!GMZ750-755-770-775-251700
...Coastal and Buoy Obs...

STATION/POSITION TIME  TEMP    WIND        PRES    VSBY  WAVE
                       AIR SEA DIR/SP/G                  HT/PER
                 (UTC) (F)     (DEG/KT/KT) (MB)    (MI)  (FT/S)
KEATON BEACH     1600   84     250/  9/ 10 1018.4F
CEDAR KEY        1600   84     170/  6/  6 1019.1S
C TOWER          1600   82     240/  6/  7 1018.2F
APALACHICOLA BUO 1600   84 85  250/  6/  6 1018.6S         1/ 4
PANAMA CITY BUOY 1542   83 84  250/  8/ 10 1018.1F         2/ 4
MOBILE BUOY      1506   83 85  270/ 12/ 14 1018.2
ORANGE BCH AL BU 1600   82 83  290/  8/ 10 1017.3R         2/ 4
$$



USA.gov is the U.S. government's official web portal to all federal, state and local government web resources and services.